Location: Doussal
(55.6167°N, 116.8333°W)
Time: 06:04:15
(UTC+00:00)

METEOR M2 - Pass Details

Date: 16 December 2023
Orbit: 818 x 826 km, 98.4° (Epoch: 25 February)

Event Time Altitude Azimuth Distance (km) Brightness Sun altitude
Rises 00:51:28 0° 175° (S) 3,355 ? -12.2°
Reaches altitude 10° 00:53:51 10° 179° (S) 2,425 ? -12.5°
Maximum altitude 00:59:09 58° 259° (WSW) 959 ? -13.2°
Drops below altitude 10° 01:04:29 10° 338° (NNW) 2,438 ? -13.9°
Sets 01:06:54 0° 343° (NNW) 3,375 ? -14.2°
